<?xml version="1.0"?>
<gpx xmlns="http://www.topografix.com/GPX/1/1" xmlns:xsi="http://www.w3.org/2001/XMLSchema-instance" version="1.1" creator="GPX RubyGem 1.0.0 -- http://dougfales.github.io/gpx/" xsi:schemaLocation="http://www.topografix.com/GPX/1/1 http://www.topografix.com/GPX/1/1/gpx.xsd">
  <metadata>
    <name/>
    <time>2026-05-08T03:08:32+00:00</time>
    <bound minlat="90.0" minlon="180.0" maxlat="-90.0" maxlon="-180.0"/>
  </metadata>
  <trk>
    <name/>
    <trkseg>
      <trkpt lat="46.644056" lon="13.899213">
        <time>1970-01-01T00:00:00+00:00</time>
        <ele>623.0</ele>
      </trkpt>
      <trkpt lat="46.644028" lon="13.89927">
        <time>1970-01-01T00:00:00+00:00</time>
        <ele>624.0</ele>
      </trkpt>
      <trkpt lat="46.644135" lon="13.899379">
        <time>1970-01-01T00:00:00+00:00</time>
        <ele>625.0</ele>
      </trkpt>
      <trkpt lat="46.644232" lon="13.89941">
        <time>1970-01-01T00:00:00+00:00</time>
        <ele>626.0</ele>
      </trkpt>
      <trkpt lat="46.644491" lon="13.899226">
        <time>1970-01-01T00:00:00+00:00</time>
        <ele>628.0</ele>
      </trkpt>
      <trkpt lat="46.644762" lon="13.899127">
        <time>1970-01-01T00:00:00+00:00</time>
        <ele>631.0</ele>
      </trkpt>
      <trkpt lat="46.645004" lon="13.898982">
        <time>1970-01-01T00:00:00+00:00</time>
        <ele>635.0</ele>
      </trkpt>
      <trkpt lat="46.645095" lon="13.898989">
        <time>1970-01-01T00:00:00+00:00</time>
        <ele>637.0</ele>
      </trkpt>
      <trkpt lat="46.645318" lon="13.898973">
        <time>1970-01-01T00:00:00+00:00</time>
        <ele>642.0</ele>
      </trkpt>
      <trkpt lat="46.645595" lon="13.898991">
        <time>1970-01-01T00:00:00+00:00</time>
        <ele>646.0</ele>
      </trkpt>
      <trkpt lat="46.645795" lon="13.899135">
        <time>1970-01-01T00:00:00+00:00</time>
        <ele>651.0</ele>
      </trkpt>
      <trkpt lat="46.645959" lon="13.899324">
        <time>1970-01-01T00:00:00+00:00</time>
        <ele>659.0</ele>
      </trkpt>
      <trkpt lat="46.646043" lon="13.899349">
        <time>1970-01-01T00:00:00+00:00</time>
        <ele>660.0</ele>
      </trkpt>
      <trkpt lat="46.646245" lon="13.899256">
        <time>1970-01-01T00:00:00+00:00</time>
        <ele>656.0</ele>
      </trkpt>
      <trkpt lat="46.646461" lon="13.899341">
        <time>1970-01-01T00:00:00+00:00</time>
        <ele>659.0</ele>
      </trkpt>
      <trkpt lat="46.646604" lon="13.899506">
        <time>1970-01-01T00:00:00+00:00</time>
        <ele>665.0</ele>
      </trkpt>
      <trkpt lat="46.646685" lon="13.899678">
        <time>1970-01-01T00:00:00+00:00</time>
        <ele>670.0</ele>
      </trkpt>
      <trkpt lat="46.646704" lon="13.89983">
        <time>1970-01-01T00:00:00+00:00</time>
        <ele>675.0</ele>
      </trkpt>
      <trkpt lat="46.646675" lon="13.900009">
        <time>1970-01-01T00:00:00+00:00</time>
        <ele>680.0</ele>
      </trkpt>
      <trkpt lat="46.646654" lon="13.900071">
        <time>1970-01-01T00:00:00+00:00</time>
        <ele>681.0</ele>
      </trkpt>
      <trkpt lat="46.646582" lon="13.900142">
        <time>1970-01-01T00:00:00+00:00</time>
        <ele>683.0</ele>
      </trkpt>
      <trkpt lat="46.646451" lon="13.900153">
        <time>1970-01-01T00:00:00+00:00</time>
        <ele>683.0</ele>
      </trkpt>
      <trkpt lat="46.646083" lon="13.900251">
        <time>1970-01-01T00:00:00+00:00</time>
        <ele>685.0</ele>
      </trkpt>
      <trkpt lat="46.64586" lon="13.90041">
        <time>1970-01-01T00:00:00+00:00</time>
        <ele>692.0</ele>
      </trkpt>
      <trkpt lat="46.645751" lon="13.900551">
        <time>1970-01-01T00:00:00+00:00</time>
        <ele>699.0</ele>
      </trkpt>
      <trkpt lat="46.64574" lon="13.900665">
        <time>1970-01-01T00:00:00+00:00</time>
        <ele>703.0</ele>
      </trkpt>
      <trkpt lat="46.645848" lon="13.900921">
        <time>1970-01-01T00:00:00+00:00</time>
        <ele>711.0</ele>
      </trkpt>
      <trkpt lat="46.64586" lon="13.901047">
        <time>1970-01-01T00:00:00+00:00</time>
        <ele>711.0</ele>
      </trkpt>
      <trkpt lat="46.645644" lon="13.901298">
        <time>1970-01-01T00:00:00+00:00</time>
        <ele>711.0</ele>
      </trkpt>
      <trkpt lat="46.64549" lon="13.901433">
        <time>1970-01-01T00:00:00+00:00</time>
        <ele>709.0</ele>
      </trkpt>
      <trkpt lat="46.645435" lon="13.901697">
        <time>1970-01-01T00:00:00+00:00</time>
        <ele>710.0</ele>
      </trkpt>
      <trkpt lat="46.64546" lon="13.901926">
        <time>1970-01-01T00:00:00+00:00</time>
        <ele>714.0</ele>
      </trkpt>
      <trkpt lat="46.645426" lon="13.902079">
        <time>1970-01-01T00:00:00+00:00</time>
        <ele>715.0</ele>
      </trkpt>
      <trkpt lat="46.645432" lon="13.902214">
        <time>1970-01-01T00:00:00+00:00</time>
        <ele>717.0</ele>
      </trkpt>
      <trkpt lat="46.645774" lon="13.902595">
        <time>1970-01-01T00:00:00+00:00</time>
        <ele>738.0</ele>
      </trkpt>
      <trkpt lat="46.645872" lon="13.902775">
        <time>1970-01-01T00:00:00+00:00</time>
        <ele>744.0</ele>
      </trkpt>
      <trkpt lat="46.645876" lon="13.90292">
        <time>1970-01-01T00:00:00+00:00</time>
        <ele>745.0</ele>
      </trkpt>
      <trkpt lat="46.645872" lon="13.903337">
        <time>1970-01-01T00:00:00+00:00</time>
        <ele>749.0</ele>
      </trkpt>
      <trkpt lat="46.645969" lon="13.903646">
        <time>1970-01-01T00:00:00+00:00</time>
        <ele>754.0</ele>
      </trkpt>
      <trkpt lat="46.645955" lon="13.903807">
        <time>1970-01-01T00:00:00+00:00</time>
        <ele>754.0</ele>
      </trkpt>
      <trkpt lat="46.645969" lon="13.903863">
        <time>1970-01-01T00:00:00+00:00</time>
        <ele>755.0</ele>
      </trkpt>
      <trkpt lat="46.646031" lon="13.903942">
        <time>1970-01-01T00:00:00+00:00</time>
        <ele>759.0</ele>
      </trkpt>
      <trkpt lat="46.646283" lon="13.904165">
        <time>1970-01-01T00:00:00+00:00</time>
        <ele>770.0</ele>
      </trkpt>
      <trkpt lat="46.646446" lon="13.904441">
        <time>1970-01-01T00:00:00+00:00</time>
        <ele>772.0</ele>
      </trkpt>
      <trkpt lat="46.646514" lon="13.904611">
        <time>1970-01-01T00:00:00+00:00</time>
        <ele>773.0</ele>
      </trkpt>
      <trkpt lat="46.646628" lon="13.904777">
        <time>1970-01-01T00:00:00+00:00</time>
        <ele>774.0</ele>
      </trkpt>
      <trkpt lat="46.646762" lon="13.904908">
        <time>1970-01-01T00:00:00+00:00</time>
        <ele>774.0</ele>
      </trkpt>
      <trkpt lat="46.646878" lon="13.904898">
        <time>1970-01-01T00:00:00+00:00</time>
        <ele>771.0</ele>
      </trkpt>
      <trkpt lat="46.646973" lon="13.904852">
        <time>1970-01-01T00:00:00+00:00</time>
        <ele>765.0</ele>
      </trkpt>
      <trkpt lat="46.647054" lon="13.904853">
        <time>1970-01-01T00:00:00+00:00</time>
        <ele>759.0</ele>
      </trkpt>
      <trkpt lat="46.647054" lon="13.904853">
        <time>1970-01-01T00:00:00+00:00</time>
        <ele>759.0</ele>
      </trkpt>
      <trkpt lat="46.646973" lon="13.904852">
        <time>1970-01-01T00:00:00+00:00</time>
        <ele>765.0</ele>
      </trkpt>
      <trkpt lat="46.646878" lon="13.904898">
        <time>1970-01-01T00:00:00+00:00</time>
        <ele>771.0</ele>
      </trkpt>
      <trkpt lat="46.646762" lon="13.904908">
        <time>1970-01-01T00:00:00+00:00</time>
        <ele>774.0</ele>
      </trkpt>
      <trkpt lat="46.646628" lon="13.904777">
        <time>1970-01-01T00:00:00+00:00</time>
        <ele>774.0</ele>
      </trkpt>
      <trkpt lat="46.646514" lon="13.904611">
        <time>1970-01-01T00:00:00+00:00</time>
        <ele>773.0</ele>
      </trkpt>
      <trkpt lat="46.646446" lon="13.904441">
        <time>1970-01-01T00:00:00+00:00</time>
        <ele>772.0</ele>
      </trkpt>
      <trkpt lat="46.646283" lon="13.904165">
        <time>1970-01-01T00:00:00+00:00</time>
        <ele>770.0</ele>
      </trkpt>
      <trkpt lat="46.646031" lon="13.903942">
        <time>1970-01-01T00:00:00+00:00</time>
        <ele>759.0</ele>
      </trkpt>
      <trkpt lat="46.645969" lon="13.903863">
        <time>1970-01-01T00:00:00+00:00</time>
        <ele>755.0</ele>
      </trkpt>
      <trkpt lat="46.645955" lon="13.903807">
        <time>1970-01-01T00:00:00+00:00</time>
        <ele>754.0</ele>
      </trkpt>
      <trkpt lat="46.645969" lon="13.903646">
        <time>1970-01-01T00:00:00+00:00</time>
        <ele>754.0</ele>
      </trkpt>
      <trkpt lat="46.645872" lon="13.903337">
        <time>1970-01-01T00:00:00+00:00</time>
        <ele>749.0</ele>
      </trkpt>
      <trkpt lat="46.645876" lon="13.90292">
        <time>1970-01-01T00:00:00+00:00</time>
        <ele>745.0</ele>
      </trkpt>
      <trkpt lat="46.645872" lon="13.902775">
        <time>1970-01-01T00:00:00+00:00</time>
        <ele>744.0</ele>
      </trkpt>
      <trkpt lat="46.645774" lon="13.902595">
        <time>1970-01-01T00:00:00+00:00</time>
        <ele>738.0</ele>
      </trkpt>
      <trkpt lat="46.645432" lon="13.902214">
        <time>1970-01-01T00:00:00+00:00</time>
        <ele>717.0</ele>
      </trkpt>
      <trkpt lat="46.645426" lon="13.902079">
        <time>1970-01-01T00:00:00+00:00</time>
        <ele>715.0</ele>
      </trkpt>
      <trkpt lat="46.64546" lon="13.901926">
        <time>1970-01-01T00:00:00+00:00</time>
        <ele>714.0</ele>
      </trkpt>
      <trkpt lat="46.645435" lon="13.901697">
        <time>1970-01-01T00:00:00+00:00</time>
        <ele>710.0</ele>
      </trkpt>
      <trkpt lat="46.64549" lon="13.901433">
        <time>1970-01-01T00:00:00+00:00</time>
        <ele>709.0</ele>
      </trkpt>
      <trkpt lat="46.645644" lon="13.901298">
        <time>1970-01-01T00:00:00+00:00</time>
        <ele>711.0</ele>
      </trkpt>
      <trkpt lat="46.64586" lon="13.901047">
        <time>1970-01-01T00:00:00+00:00</time>
        <ele>711.0</ele>
      </trkpt>
      <trkpt lat="46.645848" lon="13.900921">
        <time>1970-01-01T00:00:00+00:00</time>
        <ele>711.0</ele>
      </trkpt>
      <trkpt lat="46.64574" lon="13.900665">
        <time>1970-01-01T00:00:00+00:00</time>
        <ele>703.0</ele>
      </trkpt>
      <trkpt lat="46.645751" lon="13.900551">
        <time>1970-01-01T00:00:00+00:00</time>
        <ele>699.0</ele>
      </trkpt>
      <trkpt lat="46.64586" lon="13.90041">
        <time>1970-01-01T00:00:00+00:00</time>
        <ele>692.0</ele>
      </trkpt>
      <trkpt lat="46.646083" lon="13.900251">
        <time>1970-01-01T00:00:00+00:00</time>
        <ele>685.0</ele>
      </trkpt>
      <trkpt lat="46.646451" lon="13.900153">
        <time>1970-01-01T00:00:00+00:00</time>
        <ele>683.0</ele>
      </trkpt>
      <trkpt lat="46.646582" lon="13.900142">
        <time>1970-01-01T00:00:00+00:00</time>
        <ele>683.0</ele>
      </trkpt>
      <trkpt lat="46.646654" lon="13.900071">
        <time>1970-01-01T00:00:00+00:00</time>
        <ele>681.0</ele>
      </trkpt>
      <trkpt lat="46.646675" lon="13.900009">
        <time>1970-01-01T00:00:00+00:00</time>
        <ele>680.0</ele>
      </trkpt>
      <trkpt lat="46.646704" lon="13.89983">
        <time>1970-01-01T00:00:00+00:00</time>
        <ele>675.0</ele>
      </trkpt>
      <trkpt lat="46.646685" lon="13.899678">
        <time>1970-01-01T00:00:00+00:00</time>
        <ele>670.0</ele>
      </trkpt>
      <trkpt lat="46.646604" lon="13.899506">
        <time>1970-01-01T00:00:00+00:00</time>
        <ele>665.0</ele>
      </trkpt>
      <trkpt lat="46.646461" lon="13.899341">
        <time>1970-01-01T00:00:00+00:00</time>
        <ele>659.0</ele>
      </trkpt>
      <trkpt lat="46.646245" lon="13.899256">
        <time>1970-01-01T00:00:00+00:00</time>
        <ele>656.0</ele>
      </trkpt>
      <trkpt lat="46.646043" lon="13.899349">
        <time>1970-01-01T00:00:00+00:00</time>
        <ele>660.0</ele>
      </trkpt>
      <trkpt lat="46.645959" lon="13.899324">
        <time>1970-01-01T00:00:00+00:00</time>
        <ele>659.0</ele>
      </trkpt>
      <trkpt lat="46.645795" lon="13.899135">
        <time>1970-01-01T00:00:00+00:00</time>
        <ele>651.0</ele>
      </trkpt>
      <trkpt lat="46.645595" lon="13.898991">
        <time>1970-01-01T00:00:00+00:00</time>
        <ele>646.0</ele>
      </trkpt>
      <trkpt lat="46.645318" lon="13.898973">
        <time>1970-01-01T00:00:00+00:00</time>
        <ele>642.0</ele>
      </trkpt>
      <trkpt lat="46.645095" lon="13.898989">
        <time>1970-01-01T00:00:00+00:00</time>
        <ele>637.0</ele>
      </trkpt>
      <trkpt lat="46.645004" lon="13.898982">
        <time>1970-01-01T00:00:00+00:00</time>
        <ele>635.0</ele>
      </trkpt>
      <trkpt lat="46.644762" lon="13.899127">
        <time>1970-01-01T00:00:00+00:00</time>
        <ele>631.0</ele>
      </trkpt>
      <trkpt lat="46.644491" lon="13.899226">
        <time>1970-01-01T00:00:00+00:00</time>
        <ele>628.0</ele>
      </trkpt>
      <trkpt lat="46.644232" lon="13.89941">
        <time>1970-01-01T00:00:00+00:00</time>
        <ele>626.0</ele>
      </trkpt>
      <trkpt lat="46.644135" lon="13.899379">
        <time>1970-01-01T00:00:00+00:00</time>
        <ele>625.0</ele>
      </trkpt>
      <trkpt lat="46.644028" lon="13.89927">
        <time>1970-01-01T00:00:00+00:00</time>
        <ele>624.0</ele>
      </trkpt>
      <trkpt lat="46.644056" lon="13.899213">
        <time>1970-01-01T00:00:00+00:00</time>
        <ele>623.0</ele>
      </trkpt>
    </trkseg>
  </trk>
</gpx>
